Weather in Tripoli

Lebanon     34°26′03″N   35°50′13″E
temp.,
°C
wind,
m/s
gust,
m/s
humid.,
%
clouds,
%
prec.,
mm/h
press.,
hPa
HPBL,
m
26 january, tue
tue2623:00+16ese12500 0.0 1023496
02:00+15ene32550 0.0 1022385
05:00+15ene555733 0.0 1022282
08:00+14ne665339 0.0 1023291
11:00+15ne4451100 0.0 1022303
14:00+16ene3345100 0.0 1019378
17:00+17ene6647100 0.0 1019439
20:00+16ene7752100 0.0 1019374
27 january, wed
wed2723:00+16ene6651100 0.0 1018250
02:00+16ene8852100 0.0 1015235
05:00+16ene8852100 0.0 1014237
08:00+16ne5448100 0.0 1014172
11:00+17ene3245100 0.0 1012187
14:00+18nw0140100 0.0 1010272
17:00+18e1142100 0.0 1010245
20:00+18s3751100 0.0 10101123
28 january, thu
thu2823:00+18sw12136935 0.2 10111142
02:00+16w12137868 2.3 1011978
05:00+16w91067100 1.4 10121431
08:00+16wsw91060100 2.2 10131726
11:00+14wsw11127199 1.3 10141304
14:00+15sw896597 3.1 10131287
17:00+15ssw11117042 1.4 10131293
20:00+15sw9107471 4.0 10141266
29 january, fri
fri2923:00+14ssw101177100 2.8 10141053
02:00+14sw887392 5.9 10131132
05:00+11se3489100 11.4 1012320
08:00+12n8989100 18.8 1012623
11:00+11nw7779100 20.2 1012792
14:00+11s4376100 22.1 1013509
17:00+13ssw10106775 0.9 10141200
20:00+15wsw995643 1.4 10171782
30 january, sat
sat3023:00+15wsw7754100 0.3 10171666
02:00+14wsw996884 0.7 10181241
05:00+14ssw9106890 1.0 10171241
08:00+14ssw10107194 1.7 10181176
11:00+15ssw11137066 0.7 10181319
14:00+16ssw13146767 1.1 10171408
17:00+16sw14157598 0.2 10161265
20:00+17ssw17197882 0.4 10171510